Starlink 3131

operational
NORAD ID: 49427 Int'l Des: 2021-104 Owner: SPXS Country: US Constellation: starlink
LEOCIRCULAR

About Starlink 3131

Description loading...

Live Position

Loading 3D Globe...

Upcoming Passes

Altitude History

Altitude vs Time

uPlot chart will show altitude changes over time

Two-Line Element Set

1 49427U 21104V 25257.40757168 -.00000905 00000-0 -38806-4 0 9998
2 49427 53.2171 300.4968 0001293 85.3843 274.7296 15.08839810212020
Epoch: Sep 14, 2025 • Age: 23 hours

Current Status

Altitude 545.1 km
Velocity 7.59 km/s
Sub-Earth Point -18.15°S, 1.71°E
Launch Date Nov 13, 2021
Age 3.8 years
Type internet

Technical Details

Classification Payload
Mass 290.00 kg
Dry Mass 270.00 kg
Total Mass 290.00 kg
Length 0.20 m
Diameter 2.80 m
Span 9.00 m
Shape Box + pan
Manufacturer SPXS
Bus Type Starlink
Phase Status In Orbit
Owner/State SPXS/US

Large Constellations

Loading constellations...